Tracking 32420 objects as of 9-Dec-2025
HD Live streaming from Space Station
objects crossing your sky now

GLOBALSTAR M078

Track GLOBALSTAR M078 now!
10-day predictions
GLOBALSTAR M078 is classified as:


NORAD ID: 39076
Int'l Code: 2013-005E
Perigee: 1,419.9 km
Apogee: 1,421.5 km
Inclination: 52.0 °
Period: 114.1 minutes
Semi major axis: 7791 km
RCS: 4.7444 m2 (large)
Launch date: February 6, 2013
Source: Globalstar (GLOB)
Launch site: TYURATAM MISSILE AND SPACE COMPLEX (TTMTR)

GLOBALSTAR M078 is part of Globalstar's second-generation satellite fleet, which began launching in 2010.
Your satellite tracking list
Your tracking list is empty




NASA's NSSDC Master Catalog

Two Line Element Set (TLE):
1 39076U 13005E   25342.76471127 -.00000115  00000-0 -64090-4 0  9997
2 39076  51.9845 143.5043 0001062 152.5841 207.5082 12.62272393591965
Source of the keplerian elements: AFSPC